Time,TemperatureF,DewpointF,PressureIn,WindDirection,WindDirectionDegrees,WindSpeedMPH,WindSpeedGustMPH,Humidity,HourlyPrecipIn,Conditions,Clouds,dailyrainin,SoftwareType,DateUTC
2013-09-25 00:04:00,55.4,53.0,29.16,NE,39,0.0,0.0,92,0.00,,,0.00,weatherlink.com 1.10,2013-09-25 05:04:00,
2013-09-25 00:19:00,55.0,53.0,29.16,NE,39,0.0,0.0,92,0.00,,,0.00,weatherlink.com 1.10,2013-09-25 05:19:00,
2013-09-25 00:34:00,54.7,53.0,29.16,NE,39,0.0,0.0,93,0.00,,,0.00,weatherlink.com 1.10,2013-09-25 05:34:00,
2013-09-25 00:49:00,54.2,52.0,29.16,NE,39,0.0,0.0,93,0.00,,,0.00,weatherlink.com 1.10,2013-09-25 05:49:00,
2013-09-25 01:04:00,53.9,52.0,29.16,NE,39,0.0,0.0,94,0.00,,,0.00,weatherlink.com 1.10,2013-09-25 06:04:00,
2013-09-25 01:19:00,53.7,52.0,29.16,NE,39,0.0,0.0,94,0.00,,,0.00,weatherlink.com 1.10,2013-09-25 06:19:00,
2013-09-25 01:34:00,53.3,52.0,29.16,NE,39,0.0,0.0,95,0.00,,,0.00,weatherlink.com 1.10,2013-09-25 06:34:00,
2013-09-25 01:49:00,53.0,52.0,29.17,NE,39,0.0,0.0,95,0.00,,,0.00,weatherlink.com 1.10,2013-09-25 06:49:00,
2013-09-25 02:04:00,52.8,52.0,29.17,NE,39,0.0,0.0,95,0.00,,,0.00,weatherlink.com 1.10,2013-09-25 07:04:00,
2013-09-25 02:19:00,52.7,51.0,29.17,NE,39,0.0,0.0,95,0.00,,,0.00,weatherlink.com 1.10,2013-09-25 07:19:00,
2013-09-25 02:34:00,52.5,51.0,29.17,NE,39,0.0,0.0,96,0.00,,,0.00,weatherlink.com 1.10,2013-09-25 07:34:00,
2013-09-25 02:49:00,52.3,51.0,29.17,NE,39,0.0,0.0,96,0.00,,,0.00,weatherlink.com 1.10,2013-09-25 07:49:00,
2013-09-25 03:04:00,52.1,51.0,29.17,NE,39,0.0,0.0,96,0.00,,,0.00,weatherlink.com 1.10,2013-09-25 08:04:00,
2013-09-25 03:19:00,52.0,51.0,29.17,NE,39,0.0,0.0,96,0.00,,,0.00,weatherlink.com 1.10,2013-09-25 08:19:00,
2013-09-25 03:34:00,52.0,51.0,29.17,NE,39,0.0,0.0,96,0.00,,,0.00,weatherlink.com 1.10,2013-09-25 08:34:00,
2013-09-25 03:49:00,51.9,51.0,29.18,NE,39,0.0,0.0,97,0.00,,,0.00,weatherlink.com 1.10,2013-09-25 08:49:00,
2013-09-25 04:04:00,52.2,51.0,29.18,NE,54,0.0,0.0,97,0.00,,,0.00,weatherlink.com 1.10,2013-09-25 09:04:00,
2013-09-25 04:20:00,52.0,51.0,29.18,NE,54,0.0,0.0,97,0.00,,,0.00,weatherlink.com 1.10,2013-09-25 09:20:00,
2013-09-25 04:35:00,51.8,51.0,29.18,NE,54,0.0,0.0,97,0.00,,,0.00,weatherlink.com 1.10,2013-09-25 09:35:00,
2013-09-25 04:50:00,51.7,51.0,29.18,NE,54,0.0,0.0,97,0.00,,,0.00,weatherlink.com 1.10,2013-09-25 09:50:00,
2013-09-25 05:05:00,51.6,51.0,29.18,NE,54,0.0,0.0,97,0.00,,,0.00,weatherlink.com 1.10,2013-09-25 10:05:00,
2013-09-25 05:20:00,51.6,51.0,29.18,NE,54,0.0,0.0,97,0.00,,,0.00,weatherlink.com 1.10,2013-09-25 10:20:00,
2013-09-25 05:35:00,51.4,51.0,29.18,NE,54,0.0,0.0,97,0.00,,,0.00,weatherlink.com 1.10,2013-09-25 10:35:00,
2013-09-25 05:50:00,51.2,50.0,29.18,NE,53,0.0,0.0,97,0.00,,,0.00,weatherlink.com 1.10,2013-09-25 10:50:00,
2013-09-25 06:05:00,51.2,50.0,29.19,NE,54,0.0,0.0,97,0.00,,,0.00,weatherlink.com 1.10,2013-09-25 11:05:00,
2013-09-25 06:20:00,51.5,51.0,29.19,NE,54,0.0,0.0,97,0.00,,,0.00,weatherlink.com 1.10,2013-09-25 11:20:00,
2013-09-25 06:35:00,51.6,51.0,29.19,NE,54,0.0,0.0,97,0.00,,,0.00,weatherlink.com 1.10,2013-09-25 11:35:00,
2013-09-25 06:50:00,51.6,51.0,29.19,NE,54,0.0,0.0,97,0.00,,,0.00,weatherlink.com 1.10,2013-09-25 11:50:00,
2013-09-25 07:05:00,51.8,51.0,29.19,NE,54,0.0,0.0,98,0.00,,,0.00,weatherlink.com 1.10,2013-09-25 12:05:00,
2013-09-25 07:20:00,51.7,51.0,29.19,NE,54,0.0,0.0,98,0.00,,,0.00,weatherlink.com 1.10,2013-09-25 12:20:00,
2013-09-25 07:35:00,51.8,51.0,29.19,NE,55,0.0,0.0,98,0.00,,,0.00,weatherlink.com 1.10,2013-09-25 12:35:00,
2013-09-25 07:50:00,52.2,52.0,29.20,NE,56,0.0,0.0,98,0.00,,,0.00,weatherlink.com 1.10,2013-09-25 12:50:00,
2013-09-25 08:05:00,52.7,52.0,29.19,NE,55,0.0,0.0,98,0.00,,,0.00,weatherlink.com 1.10,2013-09-25 13:05:00,
2013-09-25 08:20:00,53.5,53.0,29.19,ENE,58,0.0,0.0,98,0.00,,,0.00,weatherlink.com 1.10,2013-09-25 13:20:00,
2013-09-25 08:35:00,54.5,54.0,29.19,East,88,0.0,1.0,98,0.00,,,0.00,weatherlink.com 1.10,2013-09-25 13:35:00,
2013-09-25 08:50:00,55.4,55.0,29.19,ESE,109,1.0,3.0,98,0.00,,,0.00,weatherlink.com 1.10,2013-09-25 13:50:00,
2013-09-25 09:05:00,56.6,56.0,29.20,SE,124,0.0,1.0,97,0.00,,,0.00,weatherlink.com 1.10,2013-09-25 14:05:00,
2013-09-25 09:20:00,57.6,56.0,29.20,SE,137,0.0,1.0,93,0.00,,,0.00,weatherlink.com 1.10,2013-09-25 14:20:00,
2013-09-25 09:35:00,58.8,56.0,29.20,SE,139,0.0,2.0,89,0.00,,,0.00,weatherlink.com 1.10,2013-09-25 14:35:00,
2013-09-25 09:50:00,60.6,57.0,29.19,ESE,105,0.0,2.0,87,0.00,,,0.00,weatherlink.com 1.10,2013-09-25 14:50:00,
2013-09-25 10:20:00,63.6,56.0,29.19,SSE,148,0.0,2.0,76,0.00,,,0.00,weatherlink.com 1.10,2013-09-25 15:20:00,
2013-09-25 10:35:00,65.3,56.0,29.19,ESE,117,0.0,1.0,73,0.00,,,0.00,weatherlink.com 1.10,2013-09-25 15:35:00,
2013-09-25 10:50:00,67.0,57.0,29.19,ESE,122,0.0,1.0,71,0.00,,,0.00,weatherlink.com 1.10,2013-09-25 15:50:00,
2013-09-25 11:05:00,68.0,57.0,29.19,SE,146,0.0,2.0,68,0.00,,,0.00,weatherlink.com 1.10,2013-09-25 16:05:00,
2013-09-25 11:20:00,68.9,57.0,29.20,ESE,107,2.0,3.0,66,0.00,,,0.00,weatherlink.com 1.10,2013-09-25 16:20:00,
2013-09-25 11:35:00,69.3,56.0,29.20,SE,146,0.0,3.0,63,0.00,,,0.00,weatherlink.com 1.10,2013-09-25 16:35:00,
2013-09-25 11:51:00,69.9,57.0,29.19,SSE,150,1.0,5.0,63,0.00,,,0.00,weatherlink.com 1.10,2013-09-25 16:51:00,
2013-09-25 12:06:00,70.6,56.0,29.18,ESE,112,1.0,3.0,61,0.00,,,0.00,weatherlink.com 1.10,2013-09-25 17:06:00,
2013-09-25 12:21:00,70.6,56.0,29.18,ESE,120,0.0,4.0,60,0.00,,,0.00,weatherlink.com 1.10,2013-09-25 17:21:00,
2013-09-25 12:36:00,71.0,56.0,29.17,ESE,108,0.0,7.0,60,0.00,,,0.00,weatherlink.com 1.10,2013-09-25 17:36:00,
2013-09-25 12:51:00,71.8,57.0,29.16,ENE,57,2.0,4.0,60,0.00,,,0.00,weatherlink.com 1.10,2013-09-25 17:51:00,
2013-09-25 13:06:00,71.6,56.0,29.16,ENE,64,2.0,5.0,59,0.00,,,0.00,weatherlink.com 1.10,2013-09-25 18:06:00,
2013-09-25 13:21:00,72.1,56.0,29.15,East,90,1.0,5.0,58,0.00,,,0.00,weatherlink.com 1.10,2013-09-25 18:21:00,
2013-09-25 13:36:00,72.6,56.0,29.15,NE,49,2.0,6.0,57,0.00,,,0.00,weatherlink.com 1.10,2013-09-25 18:36:00,
2013-09-25 13:51:00,73.5,55.0,29.14,East,95,1.0,6.0,52,0.00,,,0.00,weatherlink.com 1.10,2013-09-25 18:51:00,
2013-09-25 14:06:00,74.9,54.0,29.14,ENE,57,1.0,4.0,49,0.00,,,0.00,weatherlink.com 1.10,2013-09-25 19:06:00,
2013-09-25 14:21:00,74.2,55.0,29.13,ENE,68,1.0,6.0,51,0.00,,,0.00,weatherlink.com 1.10,2013-09-25 19:21:00,
2013-09-25 14:36:00,74.6,55.0,29.12,East,96,1.0,4.0,50,0.00,,,0.00,weatherlink.com 1.10,2013-09-25 19:36:00,
2013-09-25 14:51:00,75.4,56.0,29.12,ESE,108,1.0,7.0,51,0.00,,,0.00,weatherlink.com 1.10,2013-09-25 19:51:00,
2013-09-25 15:06:00,75.5,55.0,29.12,East,99,1.0,4.0,49,0.00,,,0.00,weatherlink.com 1.10,2013-09-25 20:06:00,
2013-09-25 15:21:00,75.5,55.0,29.12,SE,128,2.0,4.0,50,0.00,,,0.00,weatherlink.com 1.10,2013-09-25 20:21:00,
2013-09-25 15:36:00,75.1,56.0,29.12,NE,39,2.0,4.0,52,0.00,,,0.00,weatherlink.com 1.10,2013-09-25 20:36:00,
2013-09-25 15:51:00,74.5,56.0,29.11,NE,47,1.0,5.0,52,0.00,,,0.00,weatherlink.com 1.10,2013-09-25 20:51:00,
2013-09-25 16:06:00,74.4,57.0,29.11,NE,47,2.0,6.0,54,0.00,,,0.00,weatherlink.com 1.10,2013-09-25 21:06:00,
2013-09-25 16:21:00,74.2,57.0,29.11,NE,47,0.0,4.0,55,0.00,,,0.00,weatherlink.com 1.10,2013-09-25 21:21:00,
2013-09-25 16:36:00,74.1,57.0,29.10,ESE,115,2.0,4.0,55,0.00,,,0.00,weatherlink.com 1.10,2013-09-25 21:36:00,
2013-09-25 16:51:00,73.9,56.0,29.10,East,82,0.0,6.0,54,0.00,,,0.00,weatherlink.com 1.10,2013-09-25 21:51:00,
2013-09-25 17:06:00,73.6,56.0,29.10,NE,54,2.0,3.0,55,0.00,,,0.00,weatherlink.com 1.10,2013-09-25 22:06:00,
2013-09-25 17:21:00,72.4,56.0,29.10,NE,50,2.0,5.0,57,0.00,,,0.00,weatherlink.com 1.10,2013-09-25 22:21:00,
2013-09-25 17:36:00,71.5,56.0,29.10,NE,46,4.0,7.0,59,0.00,,,0.00,weatherlink.com 1.10,2013-09-25 22:36:00,
2013-09-25 17:51:00,70.8,56.0,29.10,NE,40,0.0,5.0,59,0.00,,,0.00,weatherlink.com 1.10,2013-09-25 22:51:00,
2013-09-25 18:06:00,70.5,56.0,29.10,ESE,115,0.0,1.0,60,0.00,,,0.00,weatherlink.com 1.10,2013-09-25 23:06:00,
2013-09-25 18:21:00,69.8,55.0,29.10,ENE,60,1.0,5.0,60,0.00,,,0.00,weatherlink.com 1.10,2013-09-25 23:21:00,
2013-09-25 18:36:00,69.2,55.0,29.10,ESE,119,1.0,5.0,61,0.00,,,0.00,weatherlink.com 1.10,2013-09-25 23:36:00,
2013-09-25 18:51:00,68.3,55.0,29.10,NE,44,0.0,3.0,62,0.00,,,0.00,weatherlink.com 1.10,2013-09-25 23:51:00,
2013-09-25 19:06:00,67.4,55.0,29.10,ESE,108,0.0,3.0,64,0.00,,,0.00,weatherlink.com 1.10,2013-09-26 00:06:00,
2013-09-25 19:21:00,66.5,55.0,29.09,ENE,77,0.0,2.0,66,0.00,,,0.00,weatherlink.com 1.10,2013-09-26 00:21:00,
2013-09-25 19:36:00,65.7,55.0,29.10,NNE,30,1.0,3.0,68,0.00,,,0.00,weatherlink.com 1.10,2013-09-26 00:36:00,
2013-09-25 19:51:00,65.0,55.0,29.10,ENE,65,1.0,2.0,69,0.00,,,0.00,weatherlink.com 1.10,2013-09-26 00:51:00,
2013-09-25 20:06:00,65.0,54.0,29.10,NE,37,1.0,2.0,68,0.00,,,0.00,weatherlink.com 1.10,2013-09-26 01:06:00,
2013-09-25 20:21:00,64.9,54.0,29.10,ESE,115,1.0,3.0,67,0.00,,,0.00,weatherlink.com 1.10,2013-09-26 01:21:00,
2013-09-25 20:36:00,64.5,53.0,29.10,ESE,107,0.0,3.0,66,0.00,,,0.00,weatherlink.com 1.10,2013-09-26 01:36:00,
2013-09-25 20:51:00,64.2,53.0,29.11,NNE,32,0.0,2.0,67,0.00,,,0.00,weatherlink.com 1.10,2013-09-26 01:51:00,
2013-09-25 21:06:00,63.7,53.0,29.11,East,95,0.0,3.0,68,0.00,,,0.00,weatherlink.com 1.10,2013-09-26 02:06:00,
2013-09-25 21:21:00,63.5,53.0,29.11,ESE,102,0.0,2.0,69,0.00,,,0.00,weatherlink.com 1.10,2013-09-26 02:21:00,
2013-09-25 21:36:00,63.0,53.0,29.12,ESE,115,0.0,1.0,71,0.00,,,0.00,weatherlink.com 1.10,2013-09-26 02:36:00,
2013-09-25 21:51:00,62.6,53.0,29.11,ENE,73,0.0,2.0,72,0.00,,,0.00,weatherlink.com 1.10,2013-09-26 02:51:00,
2013-09-25 22:06:00,62.4,54.0,29.11,East,96,0.0,3.0,73,0.00,,,0.00,weatherlink.com 1.10,2013-09-26 03:06:00,
2013-09-25 22:21:00,62.4,54.0,29.12,ESE,113,1.0,4.0,74,0.00,,,0.00,weatherlink.com 1.10,2013-09-26 03:21:00,
2013-09-25 22:36:00,62.0,54.0,29.12,ENE,60,0.0,4.0,75,0.00,,,0.00,weatherlink.com 1.10,2013-09-26 03:36:00,
2013-09-25 22:51:00,61.8,54.0,29.13,ESE,103,3.0,3.0,76,0.00,,,0.00,weatherlink.com 1.10,2013-09-26 03:51:00,
2013-09-25 23:06:00,61.6,54.0,29.13,ESE,113,0.0,2.0,77,0.00,,,0.00,weatherlink.com 1.10,2013-09-26 04:06:00,
2013-09-25 23:21:00,61.2,55.0,29.13,ESE,107,0.0,2.0,79,0.00,,,0.00,weatherlink.com 1.10,2013-09-26 04:21:00,
2013-09-25 23:36:00,61.0,55.0,29.13,NNE,13,0.0,1.0,80,0.00,,,0.00,weatherlink.com 1.10,2013-09-26 04:36:00,
2013-09-25 23:51:00,60.7,55.0,29.13,South,176,0.0,2.0,81,0.00,,,0.00,weatherlink.com 1.10,2013-09-26 04:51:00,